SCP
0 0 0 0 0 0 0 0 0 0 0 0 0 0 0 0 0 0 0 -0 -0 -0 -0 -0 -0 -0 0 -0 -0 -0 -0 -0 -0 -0 -0 -0 -0 -0 -0 -0 -0 0 0 -0 -0 -0 0 0 0
0 0 0 0 0 0 0 0 0 0 0 0 0 0 0 0 0 0 0 0 -0 -0 0 0 0 0 0 -0 -0 -0 -0 -0 -0 -0 -0 -0 -0 -0 -0 -0 -0 -0 0 0 0 0 -0 -0 0
0 0 0 0 0 0 0 0 0 0 0 0 0 0 0 0 0 0 0 0 0 0 0 0 0 0 0 0 -0 -0 -0 -0 -0 0 0 0 0 0 -0 -0 -0 -0 0 0 0 0 -0 -0 0
0 0 0 0 0 0 0 0 0 0 0 0 0 0 0 0 0 0 0 0 0 0 0 0 0 0 0 0 0 0 0 0 0 0 0 0 0 0 -0 -0 -0 0 0 0 0 -0 0 0 0
0 0 0 0 0 0 0 0 0 0 0 0 0 0 0 0 0 0 0 0 0 0 0 0 0 0 0 0 0 0 0 0 0 0 0 0 0 0 0 0 0 0 0 0 0 -0 -0 0 0
0 0 0 0 0 0 0 0 0 0 0 0 0 0 0 0 0 0 0 0 0 0 0 0 0 0 0 0 0 0 0 0 0 0 0 0 0 0 0 0 0 0 0 0 0 -0 0 0 0
0 0 0 0 0 0 0 0 0 0 0 0 0 0 0 0 0 0 0 0 0 0 0 0 0 0 0 0 0 0 0 0 0 0 0 0 0 0 0 0 0 0 0 0 0 0 0 0 0
0 0 0 0 0 0 0 0 0 0 0 0 0 0 0 0 0 0 0 0 0 0 0 0 0 0 0 0 0 0 0 0 0 0 0 0 0 0 0 0 0 0 0 0 0 0 0 0 0
0 0 0 0 0 0 0 0 0 0 0 0 0 0 0 0 0 0 0 0 0 0 0 0 0 0 0 0 0 0 0 0 0 0 0 0 0 0 0 0 0 0 0 0 0 0 0 0 0
0 0 0 0 0 0 0 0 0 0 0 0 0 0 0 0 0 0 0 0 0 0 0 0 0 0 0 0 0 0 0 0 0 0 0 0 0 0 0 0 0 0 0 0 0 0 0 0 0
0 0 0 0 0 0 0 0 0 0 0 0 0 0 0 0 0 0 0 0 0 0 0 0 0 0 0 0 0 0 0 0 0 0 0 0 0 0 0 0 0 0 0 0 0 0 0 0 0
0 0 0 0 0 0 0 0 0 0 0 0 0 0 0 0 0 0 0 0 0 0 0 0 0 0 0 0 0 0 0 0 0 0 0 0 0 0 0 0 0 0 0 0 0 0 0 0 0
0 0 0 0 0 0 0 0 0 0 0 0 0 0 0 0 0 0 0 0 0 0 0 0 0 0 0 0 0 0 0 0 0 0 0 0 0 0 0 0 0 0 0 0 0 0 0 0 0
0 0 0 0 0 0 0 0 0 0 0 0 0 0 0 0 0 0 0 0 0 0 0 0 0 0 0 0 0 0 0 0 0 0 0 0 0 0 0 0 0 0 0 0 0 0 0 0 0
0 0 0 0 0 0 0 0 0 0 0 0 0 0 0 0 0 0 0 0 0 0 0 0 0 0 0 0 0 0 0 0 0 0 0 0 0 0 0 0 0 0 0 0 0 0 0 0 0
0 0 0 0 0 0 0 0 0 0 0 0 0 0 0 0 0 0 0 0 0 0 0 0 0 0 0 0 0 0 0 0 0 0 0 0 0 0 0 0 0 0 0 0 0 0 0 0 0
0 0 0 0 0 0 0 0 0 0 0 0 0 0 0 0 0 0 0 0 0 0 0 0 0 0 0 0 0 0 0 0 0 0 0 0 0 0 0 0 0 0 0 0 0 0 0 0 0
0 0 0 0 0 0 0 0 0 0 0 0 0 0 0 0 0 0 0 0 0 0 0 0 0 0 0 0 0 0 0 0 0 0 0 0 0 0 0 0 0 0 0 0 0 0 0 0 0
0 0 0 0 0 0 0 0 0 0 0 0 0 0 0 0 0 0 0 0 0 0 0 0 0 0 0 0 0 0 0 0 0 0 0 0 0 0 0 0 0 0 0 0 0 0 0 0 0
0 0 0 0 0 0 0 0 0 0 0 0 0 0 0 0 0 0 0 0 0 0 0 0 0 0 0 0 0 0 -0 -0 -0 -0 0 0 0 0 0 0 0 0 0 0 0 0 0 0 0
0 0 0 0 0 0 0 0 0 0 0 0 0 0 0 0 0 0 0 0 0 0 0 0 0 0 0 0 0 -0 -0 -0 -0 -0 -0 0 0 0 0 0 0 0 0 0 0 0 0 0 0
0 0 0 0 0 0 0 0 0 0 0 0 0 0 0 0 0 0 0 0 0 0 0 0 0 0 0 0 0 -0 -0 -0 0 0 0 0 0 0 0 0 0 0 0 0 0 0 0 0 0
0 0 0 0 0 0 0 0 0 0 0 0 0 0 0 0 0 0 0 0 0 0 0 0 0 0 0 0 0 0 0 0 0 0 0 0 0 0 0 0 0 0 0 0 0 0 0 0 0
0 0 0 0 0 0 0 0 0 0 0 0 0 0 0 0 0 0 0 0 0 0 0 0 0 0 0 0 0 0 0 0 0 0 0 0 0 0 0 0 0 0 0 0 0 0 0 0 0
0 0 0 0 0 0 0 0 0 0 0 0 0 0 0 0 0 0 0 0 0 0 0 0 0 0 0 0 0 0 0 0 0 0 0 0 0 0 0 0 0 0 0 0 0 0 0 0 0
0 0 0 0 0 0 0 0 0 0 0 0 0 0 0 0 0 0 0 0 0 0 0 0 0 0 0 0 0 0 0 0 0 0 0 0 0 0 0 0 0 0 0 0 0 0 0 0 0
0 0 0 0 0 0 0 0 0 0 0 0 0 0 0 0 0 0 0 0 0 0 0 0 0 0 0 0 0 0 0 0 0 0 0 0 0 0 0 0 0 0 0 0 0 0 0 0 0
0 0 0 0 0 0 0 0 0 0 0 0 0 0 0 0 0 0 0 0 0 0 0 0 0 0 0 0 0 0 0 0 0 0 0 0 0 0 0 0 0 0 0 0 0 0 0 0 0
0 0 0 0 0 0 0 0 0 0 0 0 0 0 0 0 0 0 0 0 0 0 0 0 0 0 0 0 0 0 0 0 0 0 0 0 0 0 0 0 0 0 0 0 0 0 0 0 0
0 0 0 0 0 0 0 0 0 0 0 0 0 0 0 0 0 0 0 0 0 0 0 0 0 0 0 0 0 0 0 0 0 0 0 0 0 0 0 0 0 0 0 0 0 0 0 0 0
Wind_Speed_500mb
16 11 6 2 7 9 5 9 4 4 3 1 4 7 7 4 5 7 35 26 25 29 37 37 35 34 33 32 31 30 27 22 18 14 12 11 12 13 13 10 8 7 10 6 10 13 17 6 17
14 8 5 5 8 4 9 6 8 6 4 20 10 6 4 1 4 14 34 28 24 24 32 37 34 33 32 31 30 27 24 20 16 13 11 11 12 13 10 2 4 7 5 9 8 11 9 11 9
12 12 6 8 6 9 9 7 8 3 11 6 4 4 5 2 6 29 18 27 25 24 26 31 33 32 30 28 26 25 22 18 15 13 11 11 11 12 10 8 7 10 12 3 10 5 11 10 10
15 9 9 7 9 10 9 4 5 2 4 4 5 4 2 4 14 22 23 22 24 24 25 28 31 31 30 28 25 23 20 18 15 12 10 10 10 9 14 14 12 16 18 14 14 11 12 13 12
15 8 7 1 8 9 9 8 8 2 1 4 6 5 4 12 15 18 20 19 22 24 26 28 28 30 30 28 26 24 21 19 16 11 8 8 8 7 13 18 19 20 23 24 19 19 17 21 24
8 6 6 6 9 9 10 11 6 5 4 4 4 10 7 16 23 20 21 19 22 19 25 25 28 28 29 29 27 24 21 18 17 13 9 9 8 6 7 13 17 20 24 26 22 22 18 22 22
11 7 7 5 7 9 8 5 5 7 3 7 7 9 6 23 26 24 22 24 24 23 23 22 29 28 27 28 27 25 23 23 20 18 14 12 13 13 12 12 14 16 17 18 21 26 20 23 25
5 7 7 8 6 10 2 2 2 8 9 5 10 9 7 19 31 28 27 27 25 23 24 21 23 25 23 25 24 25 25 25 24 21 19 17 18 20 20 20 19 19 20 20 19 22 28 25 28
6 6 5 8 13 6 4 3 2 4 9 8 12 11 8 12 34 33 33 33 31 27 23 22 22 20 22 25 27 30 30 29 25 25 24 21 21 22 24 24 25 25 24 23 22 21 28 32 33
7 5 13 5 6 2 5 2 8 6 4 11 19 26 19 19 35 39 40 37 33 30 27 24 19 20 22 23 25 27 26 26 27 25 24 26 29 32 33 31 30 31 30 28 25 26 29 33 37
6 9 5 4 6 3 3 7 7 4 8 29 22 19 25 30 41 42 39 37 31 30 30 27 23 22 21 23 26 26 30 31 28 32 35 37 39 38 43 41 36 37 35 35 34 35 35 36 38
4 12 10 7 4 5 5 9 13 22 30 30 32 27 23 37 46 46 43 39 36 34 33 30 27 25 23 25 24 25 30 29 31 34 37 40 38 37 37 40 38 40 39 44 45 45 43 47 46
6 5 6 11 15 15 17 21 20 44 55 48 47 30 23 36 43 42 39 37 38 39 36 34 29 28 28 30 31 33 34 35 35 36 39 46 50 49 47 44 43 42 41 43 46 48 53 56 52
1 10 19 15 6 9 6 8 2 10 6 7 15 22 42 32 36 39 41 41 40 39 38 35 32 31 29 30 32 33 35 37 40 44 49 52 52 52 51 51 50 50 49 49 50 51 53 55 56
5 11 12 3 1 6 3 15 18 37 30 25 16 12 12 33 53 38 38 41 38 34 37 37 34 32 31 33 33 30 30 25 19 20 24 30 35 39 43 46 47 47 47 47 48 50 53 58 62
5 5 7 2 3 2 5 17 7 10 2 10 8 10 15 15 18 49 39 38 38 37 36 34 31 31 29 29 26 21 19 12 8 12 18 24 33 43 48 50 49 47 47 47 48 49 51 55 57
8 7 9 11 6 4 4 16 7 4 34 53 49 43 40 33 19 21 39 36 33 34 35 31 28 25 21 22 24 22 15 11 14 20 26 31 36 41 46 50 52 53 55 55 55 57 56 60 62
10 8 8 9 6 2 5 28 24 30 36 49 52 43 36 40 42 31 21 39 37 35 31 25 20 22 24 27 26 21 16 18 25 31 38 43 46 48 48 49 50 53 57 59 60 64 65 65 69
7 6 7 3 3 4 8 18 38 20 35 26 21 29 24 18 26 38 34 37 37 37 30 24 21 24 26 26 26 25 30 37 41 46 49 51 51 50 50 52 55 57 62 64 64 66 68 71 69
7 3 10 5 3 0 8 23 33 9 3 9 19 23 15 8 25 39 42 44 39 33 25 19 18 18 18 20 27 36 45 53 58 60 59 56 51 48 52 55 58 60 65 67 70 72 76 78 71
7 10 8 8 3 4 11 15 8 2 5 14 17 15 14 17 36 46 48 42 34 24 15 13 12 12 17 24 32 41 49 55 59 59 57 53 53 56 57 58 61 63 68 72 73 74 75 78 78
7 8 7 6 6 7 6 9 9 3 10 11 18 23 27 31 36 41 41 36 25 19 16 11 9 14 20 30 38 47 54 59 57 57 59 60 60 59 59 60 61 63 65 70 72 73 74 75 78
6 7 9 6 8 7 8 6 13 3 3 7 6 19 26 33 39 39 34 32 30 21 13 6 10 17 25 35 43 48 48 48 54 57 59 59 60 60 59 60 58 58 57 57 58 58 60 65 70
16 11 12 8 6 4 9 8 9 6 5 4 4 15 28 33 37 38 36 29 18 8 10 15 20 26 33 42 47 43 44 50 54 57 60 61 62 62 60 55 54 51 50 48 47 49 51 54 60
6 11 4 6 4 10 3 5 14 8 4 10 15 22 29 35 37 33 28 21 10 11 16 19 22 29 39 38 33 37 44 50 57 60 64 68 70 66 60 51 44 42 40 40 42 45 48 50 55
11 11 9 14 7 6 7 11 8 6 4 10 20 25 28 30 29 22 16 9 8 9 11 18 27 28 23 25 31 38 47 56 58 61 64 66 67 64 57 50 44 40 40 41 44 48 51 52 53
10 10 6 14 1 5 5 10 13 4 7 11 24 26 26 24 21 12 12 12 14 17 22 24 20 22 28 34 41 47 53 58 58 60 63 65 64 60 53 47 44 41 43 45 45 47 50 51 54
6 5 5 3 5 6 7 9 9 14 16 12 11 19 19 18 17 16 16 16 16 16 17 20 23 27 32 37 42 47 52 57 59 60 59 59 57 54 51 47 45 47 47 41 43 47 49 54 57
5 5 4 2 3 8 2 11 9 22 20 22 15 17 21 18 16 12 8 4 2 8 14 18 23 28 33 37 41 46 51 54 58 60 60 61 57 50 48 45 45 45 42 42 48 53 57 62 65
2 11 12 8 10 5 3 11 10 18 17 31 22 22 20 17 16 13 9 4 4 8 12 17 21 27 32 36 40 45 53 58 60 62 61 59 56 49 45 41 46 46 46 49 52 55 56 58 62
Wind_Direction_500mb
258 269 275 344 54 65 260 259 251 265 144 140 148 146 164 74 162 199 145 156 154 165 169 177 179 181 183 182 183 182 183 189 192 199 210 226 239 248 257 267 270 280 297 315 320 329 323 266 222
240 224 152 98 92 78 266 256 233 216 148 127 89 94 59 156 129 150 153 156 148 161 172 179 180 185 187 187 189 193 194 194 198 207 231 252 261 255 252 205 265 298 351 169 251 331 308 321 249
197 171 134 98 115 186 217 227 245 172 153 190 115 70 136 167 179 159 168 166 160 166 174 180 184 188 191 192 191 194 198 201 207 216 237 259 262 258 214 211 219 261 280 243 207 258 305 299 276
154 126 71 99 216 251 212 290 204 238 128 150 162 75 122 190 149 162 166 167 169 170 176 182 188 191 194 197 200 202 206 213 219 225 250 266 274 248 214 219 223 256 266 292 263 242 259 262 302
142 108 74 72 248 262 249 257 201 239 267 132 150 234 220 185 174 174 174 173 176 175 177 184 189 194 197 200 205 211 216 222 224 236 266 275 283 266 227 222 231 249 258 277 288 236 245 262 295
102 100 81 227 241 251 270 233 194 194 224 162 155 156 231 198 191 192 187 186 177 187 181 186 191 196 200 204 208 214 221 222 223 235 260 275 280 282 254 238 246 261 272 274 270 240 251 244 272
120 97 198 204 256 292 225 186 215 193 207 222 171 158 233 204 194 194 191 181 181 182 194 190 193 195 203 210 214 219 225 229 235 246 262 280 282 278 272 269 265 277 292 288 273 244 238 247 255
137 95 145 230 211 261 225 218 199 188 235 196 189 219 245 218 199 195 189 188 190 190 193 196 192 198 207 222 225 230 230 240 246 254 264 273 283 281 281 279 281 284 289 298 297 250 233 239 253
147 66 219 238 167 254 354 357 221 249 259 235 210 224 240 201 200 199 197 193 196 197 196 197 196 195 214 220 232 238 236 243 248 252 257 271 288 288 285 285 283 281 282 285 291 276 255 252 248
115 134 225 231 212 269 331 335 320 319 331 259 248 245 238 221 210 207 204 205 204 207 204 199 195 204 221 230 237 244 251 251 253 257 261 261 262 267 272 272 276 280 280 281 283 282 273 266 259
159 207 220 291 272 270 293 287 257 253 258 250 261 273 241 225 209 211 213 217 218 211 208 207 208 205 215 229 228 236 242 248 257 261 263 269 271 275 268 266 271 275 273 272 272 271 271 270 270
220 251 244 296 322 327 296 303 288 237 250 271 276 272 254 220 212 212 213 214 215 214 213 216 218 219 214 219 234 239 250 253 258 261 262 264 270 277 278 274 271 270 269 263 262 261 261 264 262
199 302 283 274 282 276 272 256 260 271 277 270 261 259 241 218 214 213 213 214 216 216 212 222 225 226 223 229 234 240 251 252 256 260 268 276 277 280 278 275 274 274 274 272 269 265 263 261 261
271 276 277 279 228 256 252 269 343 264 242 294 297 269 239 219 215 218 218 217 217 218 220 224 224 232 234 238 245 252 254 258 263 266 268 270 272 274 275 276 275 275 273 272 270 268 267 263 257
300 312 318 220 223 204 343 289 231 270 265 284 279 275 289 244 231 225 224 222 221 221 217 218 220 226 236 249 252 248 253 251 249 263 273 274 273 272 272 272 272 273 272 271 270 269 269 268 265
4 38 340 348 105 197 164 267 256 296 328 329 319 293 292 277 254 227 225 218 218 218 213 212 225 240 247 249 239 212 195 202 253 291 304 302 291 280 273 271 270 271 270 270 270 271 271 270 269
3 241 215 310 47 322 160 275 284 171 320 308 301 292 278 258 230 201 217 211 206 205 207 219 230 238 227 204 191 187 201 250 285 305 310 310 306 296 284 277 274 272 270 268 269 268 269 273 272
210 227 245 254 347 17 263 271 278 298 311 301 303 301 284 251 225 202 225 210 204 202 202 206 218 211 204 201 200 212 248 287 307 312 311 309 305 298 287 280 277 275 273 271 269 268 267 269 272
137 190 243 232 50 332 257 278 283 301 298 308 327 327 311 269 220 218 197 184 184 185 193 202 208 207 209 214 226 250 274 288 298 305 305 304 299 293 287 283 280 278 276 275 273 271 270 268 268
206 188 260 289 50 292 350 284 281 284 313 354 342 355 6 132 153 158 163 168 173 181 187 199 211 217 232 250 268 281 291 297 303 305 305 302 296 292 289 286 283 280 277 274 272 271 272 270 269
211 183 200 210 339 63 326 289 332 9 38 26 39 52 70 129 145 150 155 160 165 168 178 185 200 230 258 275 286 294 298 300 301 300 299 299 299 297 293 288 284 281 278 275 272 270 268 270 269
217 181 131 135 92 228 10 274 294 359 24 31 49 81 92 116 135 142 148 146 144 142 150 172 220 264 289 301 305 306 306 306 307 308 308 307 307 303 299 295 291 285 280 275 272 270 269 269 270
219 105 111 93 89 48 321 73 264 317 34 9 67 105 114 120 128 132 135 135 142 148 158 204 266 288 300 302 303 304 306 308 309 309 307 307 308 307 304 300 295 289 284 280 277 274 271 267 267
146 76 50 59 92 352 237 145 269 197 216 275 177 143 133 131 127 127 132 140 143 181 239 260 272 279 289 299 304 307 311 312 312 313 312 313 312 310 308 305 298 293 290 287 284 282 279 278 272
96 97 352 358 4 220 131 69 247 288 248 215 189 163 148 142 132 129 138 151 177 230 253 266 277 288 296 300 306 314 318 321 323 321 319 317 315 312 308 305 296 293 291 289 289 289 289 289 285
183 164 166 203 196 233 1 228 242 222 4 146 171 153 150 154 155 153 159 189 265 269 273 289 297 301 304 312 321 326 329 331 329 324 320 318 315 312 309 302 298 294 291 290 291 292 294 295 292
186 205 140 105 62 50 208 270 307 160 94 113 133 141 147 155 164 187 216 259 296 305 307 312 319 326 330 332 333 335 334 332 329 324 320 317 314 312 307 300 296 292 292 294 295 295 296 293 291
191 155 129 350 153 245 280 274 221 184 180 170 127 133 150 168 197 225 248 273 290 305 320 328 328 327 328 328 326 327 330 330 328 327 325 321 317 315 309 303 298 296 296 300 301 297 298 294 292
154 210 216 118 108 176 230 257 224 182 175 169 167 152 164 181 210 223 208 212 285 325 327 325 325 324 323 323 323 328 332 333 333 329 326 322 319 316 314 310 306 307 311 306 301 300 298 294 292
213 206 168 160 203 225 160 271 318 173 168 163 160 182 190 198 169 161 175 195 290 316 319 326 326 325 326 324 327 332 337 340 340 338 332 324 319 313 315 316 315 312 305 303 301 302 301 297 291
Wind_Speed_850mb
16 11 6 2 7 9 5 9 4 4 3 1 4 7 7 4 5 7 35 26 25 29 37 37 35 34 33 32 31 30 27 22 18 14 12 11 12 13 13 10 8 7 10 6 10 13 17 6 17
14 8 5 5 8 4 9 6 8 6 4 20 10 6 4 1 4 14 34 28 24 24 32 37 34 33 32 31 30 27 24 20 16 13 11 11 12 13 10 2 4 7 5 9 8 11 9 11 9
12 12 6 8 6 9 9 7 8 3 11 6 4 4 5 2 6 29 18 27 25 24 26 31 33 32 30 28 26 25 22 18 15 13 11 11 11 12 10 8 7 10 12 3 10 5 11 10 10
15 9 9 7 9 10 9 4 5 2 4 4 5 4 2 4 14 22 23 22 24 24 25 28 31 31 30 28 25 23 20 18 15 12 10 10 10 9 14 14 12 16 18 14 14 11 12 13 12
15 8 7 1 8 9 9 8 8 2 1 4 6 5 4 12 15 18 20 19 22 24 26 28 28 30 30 28 26 24 21 19 16 11 8 8 8 7 13 18 19 20 23 24 19 19 17 21 24
8 6 6 6 9 9 10 11 6 5 4 4 4 10 7 16 23 20 21 19 22 19 25 25 28 28 29 29 27 24 21 18 17 13 9 9 8 6 7 13 17 20 24 26 22 22 18 22 22
11 7 7 5 7 9 8 5 5 7 3 7 7 9 6 23 26 24 22 24 24 23 23 22 29 28 27 28 27 25 23 23 20 18 14 12 13 13 12 12 14 16 17 18 21 26 20 23 25
5 7 7 8 6 10 2 2 2 8 9 5 10 9 7 19 31 28 27 27 25 23 24 21 23 25 23 25 24 25 25 25 24 21 19 17 18 20 20 20 19 19 20 20 19 22 28 25 28
6 6 5 8 13 6 4 3 2 4 9 8 12 11 8 12 34 33 33 33 31 27 23 22 22 20 22 25 27 30 30 29 25 25 24 21 21 22 24 24 25 25 24 23 22 21 28 32 33
7 5 13 5 6 2 5 2 8 6 4 11 19 26 19 19 35 39 40 37 33 30 27 24 19 20 22 23 25 27 26 26 27 25 24 26 29 32 33 31 30 31 30 28 25 26 29 33 37
6 9 5 4 6 3 3 7 7 4 8 29 22 19 25 30 41 42 39 37 31 30 30 27 23 22 21 23 26 26 30 31 28 32 35 37 39 38 43 41 36 37 35 35 34 35 35 36 38
4 12 10 7 4 5 5 9 13 22 30 30 32 27 23 37 46 46 43 39 36 34 33 30 27 25 23 25 24 25 30 29 31 34 37 40 38 37 37 40 38 40 39 44 45 45 43 47 46
6 5 6 11 15 15 17 21 20 44 55 48 47 30 23 36 43 42 39 37 38 39 36 34 29 28 28 30 31 33 34 35 35 36 39 46 50 49 47 44 43 42 41 43 46 48 53 56 52
1 10 19 15 6 9 6 8 2 10 6 7 15 22 42 32 36 39 41 41 40 39 38 35 32 31 29 30 32 33 35 37 40 44 49 52 52 52 51 51 50 50 49 49 50 51 53 55 56
5 11 12 3 1 6 3 15 18 37 30 25 16 12 12 33 53 38 38 41 38 34 37 37 34 32 31 33 33 30 30 25 19 20 24 30 35 39 43 46 47 47 47 47 48 50 53 58 62
5 5 7 2 3 2 5 17 7 10 2 10 8 10 15 15 18 49 39 38 38 37 36 34 31 31 29 29 26 21 19 12 8 12 18 24 33 43 48 50 49 47 47 47 48 49 51 55 57
8 7 9 11 6 4 4 16 7 4 34 53 49 43 40 33 19 21 39 36 33 34 35 31 28 25 21 22 24 22 15 11 14 20 26 31 36 41 46 50 52 53 55 55 55 57 56 60 62
10 8 8 9 6 2 5 28 24 30 36 49 52 43 36 40 42 31 21 39 37 35 31 25 20 22 24 27 26 21 16 18 25 31 38 43 46 48 48 49 50 53 57 59 60 64 65 65 69
7 6 7 3 3 4 8 18 38 20 35 26 21 29 24 18 26 38 34 37 37 37 30 24 21 24 26 26 26 25 30 37 41 46 49 51 51 50 50 52 55 57 62 64 64 66 68 71 69
7 3 10 5 3 0 8 23 33 9 3 9 19 23 15 8 25 39 42 44 39 33 25 19 18 18 18 20 27 36 45 53 58 60 59 56 51 48 52 55 58 60 65 67 70 72 76 78 71
7 10 8 8 3 4 11 15 8 2 5 14 17 15 14 17 36 46 48 42 34 24 15 13 12 12 17 24 32 41 49 55 59 59 57 53 53 56 57 58 61 63 68 72 73 74 75 78 78
7 8 7 6 6 7 6 9 9 3 10 11 18 23 27 31 36 41 41 36 25 19 16 11 9 14 20 30 38 47 54 59 57 57 59 60 60 59 59 60 61 63 65 70 72 73 74 75 78
6 7 9 6 8 7 8 6 13 3 3 7 6 19 26 33 39 39 34 32 30 21 13 6 10 17 25 35 43 48 48 48 54 57 59 59 60 60 59 60 58 58 57 57 58 58 60 65 70
16 11 12 8 6 4 9 8 9 6 5 4 4 15 28 33 37 38 36 29 18 8 10 15 20 26 33 42 47 43 44 50 54 57 60 61 62 62 60 55 54 51 50 48 47 49 51 54 60
6 11 4 6 4 10 3 5 14 8 4 10 15 22 29 35 37 33 28 21 10 11 16 19 22 29 39 38 33 37 44 50 57 60 64 68 70 66 60 51 44 42 40 40 42 45 48 50 55
11 11 9 14 7 6 7 11 8 6 4 10 20 25 28 30 29 22 16 9 8 9 11 18 27 28 23 25 31 38 47 56 58 61 64 66 67 64 57 50 44 40 40 41 44 48 51 52 53
10 10 6 14 1 5 5 10 13 4 7 11 24 26 26 24 21 12 12 12 14 17 22 24 20 22 28 34 41 47 53 58 58 60 63 65 64 60 53 47 44 41 43 45 45 47 50 51 54
6 5 5 3 5 6 7 9 9 14 16 12 11 19 19 18 17 16 16 16 16 16 17 20 23 27 32 37 42 47 52 57 59 60 59 59 57 54 51 47 45 47 47 41 43 47 49 54 57
5 5 4 2 3 8 2 11 9 22 20 22 15 17 21 18 16 12 8 4 2 8 14 18 23 28 33 37 41 46 51 54 58 60 60 61 57 50 48 45 45 45 42 42 48 53 57 62 65
2 11 12 8 10 5 3 11 10 18 17 31 22 22 20 17 16 13 9 4 4 8 12 17 21 27 32 36 40 45 53 58 60 62 61 59 56 49 45 41 46 46 46 49 52 55 56 58 62
Wind_Direction_850mb
258 269 275 344 54 65 260 259 251 265 144 140 148 146 164 74 162 199 145 156 154 165 169 177 179 181 183 182 183 182 183 189 192 199 210 226 239 248 257 267 270 280 297 315 320 329 323 266 222
240 224 152 98 92 78 266 256 233 216 148 127 89 94 59 156 129 150 153 156 148 161 172 179 180 185 187 187 189 193 194 194 198 207 231 252 261 255 252 205 265 298 351 169 251 331 308 321 249
197 171 134 98 115 186 217 227 245 172 153 190 115 70 136 167 179 159 168 166 160 166 174 180 184 188 191 192 191 194 198 201 207 216 237 259 262 258 214 211 219 261 280 243 207 258 305 299 276
154 126 71 99 216 251 212 290 204 238 128 150 162 75 122 190 149 162 166 167 169 170 176 182 188 191 194 197 200 202 206 213 219 225 250 266 274 248 214 219 223 256 266 292 263 242 259 262 302
142 108 74 72 248 262 249 257 201 239 267 132 150 234 220 185 174 174 174 173 176 175 177 184 189 194 197 200 205 211 216 222 224 236 266 275 283 266 227 222 231 249 258 277 288 236 245 262 295
102 100 81 227 241 251 270 233 194 194 224 162 155 156 231 198 191 192 187 186 177 187 181 186 191 196 200 204 208 214 221 222 223 235 260 275 280 282 254 238 246 261 272 274 270 240 251 244 272
120 97 198 204 256 292 225 186 215 193 207 222 171 158 233 204 194 194 191 181 181 182 194 190 193 195 203 210 214 219 225 229 235 246 262 280 282 278 272 269 265 277 292 288 273 244 238 247 255
137 95 145 230 211 261 225 218 199 188 235 196 189 219 245 218 199 195 189 188 190 190 193 196 192 198 207 222 225 230 230 240 246 254 264 273 283 281 281 279 281 284 289 298 297 250 233 239 253
147 66 219 238 167 254 354 357 221 249 259 235 210 224 240 201 200 199 197 193 196 197 196 197 196 195 214 220 232 238 236 243 248 252 257 271 288 288 285 285 283 281 282 285 291 276 255 252 248
115 134 225 231 212 269 331 335 320 319 331 259 248 245 238 221 210 207 204 205 204 207 204 199 195 204 221 230 237 244 251 251 253 257 261 261 262 267 272 272 276 280 280 281 283 282 273 266 259
159 207 220 291 272 270 293 287 257 253 258 250 261 273 241 225 209 211 213 217 218 211 208 207 208 205 215 229 228 236 242 248 257 261 263 269 271 275 268 266 271 275 273 272 272 271 271 270 270
220 251 244 296 322 327 296 303 288 237 250 271 276 272 254 220 212 212 213 214 215 214 213 216 218 219 214 219 234 239 250 253 258 261 262 264 270 277 278 274 271 270 269 263 262 261 261 264 262
199 302 283 274 282 276 272 256 260 271 277 270 261 259 241 218 214 213 213 214 216 216 212 222 225 226 223 229 234 240 251 252 256 260 268 276 277 280 278 275 274 274 274 272 269 265 263 261 261
271 276 277 279 228 256 252 269 343 264 242 294 297 269 239 219 215 218 218 217 217 218 220 224 224 232 234 238 245 252 254 258 263 266 268 270 272 274 275 276 275 275 273 272 270 268 267 263 257
300 312 318 220 223 204 343 289 231 270 265 284 279 275 289 244 231 225 224 222 221 221 217 218 220 226 236 249 252 248 253 251 249 263 273 274 273 272 272 272 272 273 272 271 270 269 269 268 265
4 38 340 348 105 197 164 267 256 296 328 329 319 293 292 277 254 227 225 218 218 218 213 212 225 240 247 249 239 212 195 202 253 291 304 302 291 280 273 271 270 271 270 270 270 271 271 270 269
3 241 215 310 47 322 160 275 284 171 320 308 301 292 278 258 230 201 217 211 206 205 207 219 230 238 227 204 191 187 201 250 285 305 310 310 306 296 284 277 274 272 270 268 269 268 269 273 272
210 227 245 254 347 17 263 271 278 298 311 301 303 301 284 251 225 202 225 210 204 202 202 206 218 211 204 201 200 212 248 287 307 312 311 309 305 298 287 280 277 275 273 271 269 268 267 269 272
137 190 243 232 50 332 257 278 283 301 298 308 327 327 311 269 220 218 197 184 184 185 193 202 208 207 209 214 226 250 274 288 298 305 305 304 299 293 287 283 280 278 276 275 273 271 270 268 268
206 188 260 289 50 292 350 284 281 284 313 354 342 355 6 132 153 158 163 168 173 181 187 199 211 217 232 250 268 281 291 297 303 305 305 302 296 292 289 286 283 280 277 274 272 271 272 270 269
211 183 200 210 339 63 326 289 332 9 38 26 39 52 70 129 145 150 155 160 165 168 178 185 200 230 258 275 286 294 298 300 301 300 299 299 299 297 293 288 284 281 278 275 272 270 268 270 269
217 181 131 135 92 228 10 274 294 359 24 31 49 81 92 116 135 142 148 146 144 142 150 172 220 264 289 301 305 306 306 306 307 308 308 307 307 303 299 295 291 285 280 275 272 270 269 269 270
219 105 111 93 89 48 321 73 264 317 34 9 67 105 114 120 128 132 135 135 142 148 158 204 266 288 300 302 303 304 306 308 309 309 307 307 308 307 304 300 295 289 284 280 277 274 271 267 267
146 76 50 59 92 352 237 145 269 197 216 275 177 143 133 131 127 127 132 140 143 181 239 260 272 279 289 299 304 307 311 312 312 313 312 313 312 310 308 305 298 293 290 287 284 282 279 278 272
96 97 352 358 4 220 131 69 247 288 248 215 189 163 148 142 132 129 138 151 177 230 253 266 277 288 296 300 306 314 318 321 323 321 319 317 315 312 308 305 296 293 291 289 289 289 289 289 285
183 164 166 203 196 233 1 228 242 222 4 146 171 153 150 154 155 153 159 189 265 269 273 289 297 301 304 312 321 326 329 331 329 324 320 318 315 312 309 302 298 294 291 290 291 292 294 295 292
186 205 140 105 62 50 208 270 307 160 94 113 133 141 147 155 164 187 216 259 296 305 307 312 319 326 330 332 333 335 334 332 329 324 320 317 314 312 307 300 296 292 292 294 295 295 296 293 291
191 155 129 350 153 245 280 274 221 184 180 170 127 133 150 168 197 225 248 273 290 305 320 328 328 327 328 328 326 327 330 330 328 327 325 321 317 315 309 303 298 296 296 300 301 297 298 294 292
154 210 216 118 108 176 230 257 224 182 175 169 167 152 164 181 210 223 208 212 285 325 327 325 325 324 323 323 323 328 332 333 333 329 326 322 319 316 314 310 306 307 311 306 301 300 298 294 292
213 206 168 160 203 225 160 271 318 173 168 163 160 182 190 198 169 161 175 195 290 316 319 326 326 325 326 324 327 332 337 340 340 338 332 324 319 313 315 316 315 312 305 303 301 302 301 297 291